When you browse on this site, cookies collect data to enhance your experience and personalize the content and advertising you see.
Visit our Privacy Policy to learn more. By continuing to use the site, you agree to this use of cookies and data.
  • în România
  • Lista ţărilor
  • Pe 7 zile
  • Temperatura apei
  • Meteo pe hartă
  • Widget-uri
  • user-avatar
    Intrare

    Meteo pe oră la Mostar

    Astăzi, 15 Septembrie, Duminică

    Timp Temperatura Precipitaţii Vânt Presiune Umiditate
    00:00 +20°C° 0 mm 3 m/s 762 mmHg 74%
    01:00 +19°C° 0 mm 3 m/s 762 mmHg 76%
    02:00 +19°C° 0 mm 3 m/s 762 mmHg 76%
    03:00 +19°C° 0 mm 3 m/s 761 mmHg 77%
    04:00 +18°C° 0 mm 3 m/s 761 mmHg 78%
    05:00 +19°C° 0 mm 3 m/s 761 mmHg 75%
    06:00 +20°C° 0 mm 2 m/s 761 mmHg 72%
    07:00 +21°C° 0 mm 2 m/s 762 mmHg 68%
    08:00 +24°C° 0 mm 1 m/s 761 mmHg 60%
    09:00 +26°C° 0 mm 1 m/s 761 mmHg 52%
    10:00 +28°C° 0 mm 1 m/s 761 mmHg 45%
    11:00 +29°C° 0 mm 1 m/s 761 mmHg 42%
    12:00 +30°C° 0 mm 1 m/s 761 mmHg 39%
    13:00 +31°C° 0 mm 1 m/s 761 mmHg 37%
    14:00 +31°C° 0 mm 2 m/s 760 mmHg 40%
    15:00 +30°C° 0 mm 2 m/s 760 mmHg 42%
    16:00 +29°C° 0 mm 2 m/s 759 mmHg 45%
    17:00 +27°C° 0 mm 2 m/s 759 mmHg 53%
    18:00 +25°C° 0 mm 1 m/s 759 mmHg 60%
    19:00 +23°C° 0 mm 1 m/s 760 mmHg 68%
    20:00 +23°C° 0 mm 1 m/s 759 mmHg 68%
    21:00 +22°C° 0 mm 1 m/s 759 mmHg 69%
    22:00 +22°C° 0 mm 1 m/s 759 mmHg 69%
    23:00 +22°C° 0 mm 1 m/s 759 mmHg 69%

    Mâine, 16 Septembrie, Luni

    Timp Temperatura Precipitaţii Vânt Presiune Umiditate
    00:00 +21°C° 0 mm 1 m/s 759 mmHg 68%
    01:00 +21°C° 0 mm 1 m/s 759 mmHg 68%
    02:00 +21°C° 0 mm 1 m/s 759 mmHg 68%
    03:00 +21°C° 0 mm 1 m/s 758 mmHg 68%
    04:00 +21°C° 0 mm 1 m/s 758 mmHg 67%
    05:00 +21°C° 0 mm 1 m/s 758 mmHg 65%
    06:00 +22°C° 0 mm 1 m/s 758 mmHg 63%
    07:00 +23°C° 0 mm 1 m/s 758 mmHg 61%
    08:00 +25°C° 0 mm 1 m/s 758 mmHg 55%
    09:00 +27°C° 0 mm 1 m/s 757 mmHg 48%
    10:00 +30°C° 0 mm 1 m/s 757 mmHg 42%
    11:00 +30°C° 0 mm 1 m/s 757 mmHg 40%
    12:00 +31°C° 0 mm 1 m/s 757 mmHg 39%
    13:00 +31°C° 0 mm 2 m/s 756 mmHg 37%
    14:00 +31°C° 0 mm 2 m/s 756 mmHg 41%
    15:00 +30°C° 0 mm 2 m/s 756 mmHg 45%
    16:00 +29°C° 0 mm 2 m/s 755 mmHg 48%
    17:00 +27°C° 0 mm 1 m/s 755 mmHg 56%
    18:00 +25°C° 0 mm 1 m/s 755 mmHg 63%
    19:00 +23°C° 0 mm 1 m/s 755 mmHg 70%
    20:00 +23°C° 0 mm 1 m/s 756 mmHg 70%
    21:00 +22°C° 0 mm 1 m/s 756 mmHg 70%
    22:00 +22°C° 0 mm 1 m/s 756 mmHg 70%
    23:00 +22°C° 0 mm 1 m/s 755 mmHg 69%

    Poimâine, 17 Septembrie, Marţi

    Timp Temperatura Precipitaţii Vânt Presiune Umiditate
    00:00 +22°C° 0 mm 1 m/s 755 mmHg 68%
    01:00 +21°C° 0 mm 1 m/s 755 mmHg 68%
    02:00 +21°C° 0 mm 1 m/s 755 mmHg 68%
    03:00 +21°C° 0 mm 1 m/s 755 mmHg 69%
    04:00 +21°C° 0 mm 1 m/s 754 mmHg 69%
    05:00 +21°C° 0 mm 1 m/s 754 mmHg 67%
    06:00 +22°C° 0 mm 1 m/s 754 mmHg 64%
    07:00 +23°C° 0 mm 1 m/s 754 mmHg 62%
    08:00 +25°C° 0 mm 1 m/s 754 mmHg 56%
    09:00 +27°C° 0 mm 1 m/s 755 mmHg 51%
    10:00 +29°C° 0 mm 1 m/s 755 mmHg 45%
    11:00 +29°C° 0 mm 2 m/s 754 mmHg 44%
    12:00 +30°C° 0 mm 2 m/s 754 mmHg 43%
    13:00 +30°C° 0 mm 2 m/s 754 mmHg 42%
    14:00 +30°C° 0 mm 2 m/s 754 mmHg 45%
    15:00 +29°C° 0 mm 2 m/s 753 mmHg 47%
    16:00 +28°C° 0 mm 2 m/s 753 mmHg 50%
    17:00 +26°C° 0 mm 1 m/s 753 mmHg 58%
    18:00 +24°C° 0 mm 1 m/s 753 mmHg 66%
    19:00 +20°C° 0 mm 0 m/s 753 mmHg 73%
    20:00 +20°C° 0 mm 0 m/s 754 mmHg 73%
    21:00 +20°C° 0 mm 0 m/s 754 mmHg 74%
    22:00 +22°C° 0 mm 1 m/s 754 mmHg 74%
    23:00 +22°C° 0 mm 1 m/s 754 mmHg 74%

    18 Septembrie, Miercuri

    Timp Temperatura Precipitaţii Vânt Presiune Umiditate
    00:00 +19°C° 0 mm 0 m/s 754 mmHg 75%
    01:00 +19°C° 0 mm 0 m/s 754 mmHg 76%
    02:00 +21°C° 0 mm 1 m/s 754 mmHg 76%
    03:00 +20°C° 0 mm 1 m/s 754 mmHg 77%
    04:00 +20°C° 0 mm 1 m/s 754 mmHg 78%
    05:00 +21°C° 0 mm 1 m/s 754 mmHg 75%
    06:00 +22°C° 0 mm 1 m/s 754 mmHg 71%
    07:00 +23°C° 0 mm 1 m/s 755 mmHg 68%
    08:00 +25°C° 0 mm 1 m/s 755 mmHg 62%
    09:00 +26°C° 0 mm 1 m/s 755 mmHg 55%
    10:00 +28°C° 0 mm 1 m/s 755 mmHg 49%
    11:00 +29°C° 0 mm 1 m/s 755 mmHg 48%
    12:00 +30°C° 0 mm 2 m/s 755 mmHg 47%
    13:00 +30°C° 0 mm 2 m/s 755 mmHg 46%
    14:00 +29°C° 0.1 mm 2 m/s 755 mmHg 49%
    15:00 +29°C° 0.1 mm 1 m/s 754 mmHg 53%
    16:00 +28°C° 0.1 mm 1 m/s 754 mmHg 56%
    17:00 +26°C° 0.2 mm 1 m/s 754 mmHg 63%
    18:00 +24°C° 0.2 mm 1 m/s 754 mmHg 71%
    19:00 +21°C° 0.2 mm 2 m/s 755 mmHg 79%
    20:00 +20°C° 0.1 mm 2 m/s 755 mmHg 80%
    21:00 +19°C° 0.1 mm 2 m/s 755 mmHg 81%
    22:00 +19°C° 0.1 mm 2 m/s 755 mmHg 82%
    23:00 +18°C° 0 mm 2 m/s 755 mmHg 82%

    19 Septembrie, Joi

    Timp Temperatura Precipitaţii Vânt Presiune Umiditate
    00:00 +18°C° 0 mm 2 m/s 755 mmHg 83%
    01:00 +18°C° 0 mm 2 m/s 755 mmHg 83%
    02:00 +18°C° 0 mm 2 m/s 755 mmHg 83%
    03:00 +17°C° 0 mm 2 m/s 755 mmHg 83%
    04:00 +17°C° 0 mm 3 m/s 755 mmHg 83%
    05:00 +18°C° 0.1 mm 2 m/s 755 mmHg 81%
    06:00 +18°C° 0.1 mm 2 m/s 755 mmHg 80%
    07:00 +19°C° 0.1 mm 2 m/s 755 mmHg 78%
    08:00 +19°C° 0.3 mm 2 m/s 755 mmHg 77%
    09:00 +20°C° 0.3 mm 2 m/s 755 mmHg 75%
    10:00 +20°C° 0.3 mm 2 m/s 756 mmHg 73%
    11:00 +20°C° 0.4 mm 2 m/s 756 mmHg 76%
    12:00 +19°C° 0.4 mm 2 m/s 756 mmHg 79%
    13:00 +19°C° 0.4 mm 2 m/s 756 mmHg 82%
    14:00 +18°C° 0.5 mm 2 m/s 756 mmHg 81%
    15:00 +18°C° 0.5 mm 3 m/s 756 mmHg 81%
    16:00 +18°C° 0.5 mm 3 m/s 756 mmHg 80%
    17:00 +17°C° 0 mm 3 m/s 756 mmHg 80%
    18:00 +16°C° 0 mm 3 m/s 756 mmHg 80%
    19:00 +14°C° 0 mm 3 m/s 756 mmHg 80%
    20:00 +14°C° 0.1 mm 4 m/s 757 mmHg 79%
    21:00 +13°C° 0.1 mm 4 m/s 757 mmHg 78%
    22:00 +13°C° 0.1 mm 4 m/s 757 mmHg 77%
    23:00 +13°C° 0 mm 4 m/s 757 mmHg 74%

    20 Septembrie, Vineri

    Timp Temperatura Precipitaţii Vânt Presiune Umiditate
    00:00 +13°C° 0 mm 4 m/s 757 mmHg 72%
    01:00 +13°C° 0 mm 4 m/s 757 mmHg 70%
    02:00 +12°C° 0 mm 5 m/s 757 mmHg 68%
    03:00 +12°C° 0 mm 5 m/s 757 mmHg 67%
    04:00 +12°C° 0 mm 5 m/s 758 mmHg 66%
    05:00 +12°C° 0 mm 5 m/s 758 mmHg 64%
    06:00 +12°C° 0 mm 5 m/s 758 mmHg 62%
    07:00 +12°C° 0 mm 5 m/s 758 mmHg 60%
    08:00 +14°C° 0 mm 5 m/s 758 mmHg 52%
    09:00 +15°C° 0 mm 5 m/s 759 mmHg 43%
    10:00 +17°C° 0 mm 5 m/s 759 mmHg 35%
    11:00 +19°C° 0 mm 5 m/s 759 mmHg 34%
    12:00 +20°C° 0 mm 5 m/s 759 mmHg 33%
    13:00 +20°C° 0 mm 5 m/s 758 mmHg 32%
    14:00 +20°C° 0 mm 5 m/s 758 mmHg 34%
    15:00 +20°C° 0 mm 5 m/s 758 mmHg 35%
    16:00 +19°C° 0 mm 5 m/s 759 mmHg 37%
    17:00 +16°C° 0 mm 5 m/s 759 mmHg 40%
    18:00 +14°C° 0 mm 4 m/s 760 mmHg 43%
    19:00 +12°C° 0 mm 4 m/s 760 mmHg 46%
    20:00 +12°C° 0 mm 4 m/s 761 mmHg 47%
    21:00 +11°C° 0 mm 4 m/s 761 mmHg 47%
    22:00 +10°C° 0 mm 4 m/s 761 mmHg 48%
    23:00 +8°C° 0 mm 4 m/s 761 mmHg 49%
    Arată mai mult